Wind_Speed
9 10 10 11 11 10 9 8 7 6 6 6 5 4 3 3 2 2 2 2 2 2 1 1 1 1 1 1 2 2 2 2 1 2 3 4 6 6 6 7 8 9 10
10 11 11 11 11 11 10 9 8 7 7 7 6 5 4 3 2 1 1 0 0 1 1 0 0 0 1 1 1 1 1 1 0 1 3 5 5 5 6 7 8 9 9
11 12 12 12 12 11 10 10 8 8 8 8 7 6 5 4 3 2 1 1 1 1 0 1 1 1 1 1 2 2 1 1 1 2 4 5 5 5 6 6 8 9 9
12 12 13 13 13 12 11 10 9 9 9 8 8 7 6 5 4 3 2 2 2 2 1 2 2 2 2 2 2 2 1 1 1 2 3 4 5 5 6 6 7 8 8
12 13 13 14 14 14 12 11 10 10 9 9 8 8 7 6 5 4 3 3 3 3 2 2 2 2 2 2 2 2 2 2 2 2 3 4 4 5 5 5 6 7 7
13 14 14 14 15 14 13 12 11 11 10 10 9 8 7 6 6 5 4 3 3 3 3 3 3 3 3 3 3 2 2 2 2 3 4 4 4 4 5 6 6 7 7
13 14 14 15 15 15 14 13 12 12 11 10 9 9 8 6 6 5 4 4 4 4 4 3 3 3 3 3 3 3 3 3 4 4 4 4 4 4 5 6 6 7 7
13 14 15 15 16 16 16 14 13 12 11 10 10 9 8 6 6 5 5 4 4 4 4 4 3 3 3 3 3 3 3 4 4 4 5 5 4 4 5 6 6 7 7
12 14 14 15 16 16 16 15 14 13 12 11 10 9 8 7 6 6 5 5 5 4 4 4 3 3 3 3 3 3 4 4 5 5 5 5 4 4 5 6 7 7 7
11 14 14 15 17 17 16 16 15 14 13 12 10 9 8 7 6 6 5 5 5 4 4 4 3 3 3 3 4 4 4 4 4 5 6 5 5 5 6 6 7 8 7
13 14 15 16 18 17 16 16 16 15 13 12 11 9 8 7 6 6 5 5 5 4 4 4 4 4 4 4 4 5 5 4 4 5 6 6 6 6 6 6 7 8 8
13 14 15 17 18 17 17 17 16 16 14 13 11 10 9 7 7 6 6 5 4 4 4 4 4 4 4 4 4 5 5 4 4 4 6 6 5 6 7 7 8 8 8
11 14 15 16 17 18 18 17 17 17 15 13 12 11 9 8 7 6 6 5 4 5 4 4 4 4 4 4 4 4 5 4 3 4 5 6 6 6 7 8 9 9 10
13 14 16 17 18 19 19 18 18 17 15 14 12 11 9 7 7 6 6 5 5 5 4 3 3 3 3 3 4 4 5 5 4 4 5 5 5 6 7 8 8 9 10
13 14 16 17 18 17 18 19 18 17 15 14 12 10 9 7 7 6 6 5 5 4 3 2 2 2 2 3 3 4 4 5 4 4 4 5 5 6 6 7 8 8 10
13 13 15 16 18 19 20 20 18 16 15 13 12 10 9 8 7 7 6 5 3 3 2 2 2 2 2 2 2 3 3 3 4 4 4 4 5 6 6 6 7 7 8
14 14 15 16 18 19 20 20 19 16 15 14 12 11 9 8 7 6 5 5 3 3 3 2 2 2 1 1 2 2 3 3 3 4 4 3 4 4 5 6 6 6 7
14 15 14 14 16 16 18 19 18 17 16 15 13 12 10 9 7 6 5 5 4 3 3 2 2 2 1 1 1 1 2 2 2 3 4 3 3 3 3 4 4 5 5
13 14 14 13 15 15 16 18 17 17 16 15 13 12 11 10 8 7 6 5 5 4 3 2 2 2 1 1 1 1 1 1 1 1 2 2 2 2 2 3 3 4 4
11 12 13 13 15 16 16 18 18 17 17 16 14 13 12 11 9 8 7 6 5 4 3 2 2 1 0 1 1 1 2 3 3 2 1 1 0 0 2 2 2 3 3
9 10 11 13 14 15 15 16 18 18 17 16 15 13 12 11 10 9 7 6 5 5 4 3 2 1 1 1 1 2 3 4 4 4 3 2 2 2 1 2 2 3 3
9 9 10 11 13 14 16 16 18 19 17 16 15 14 13 12 10 10 8 7 6 5 4 3 2 2 1 1 1 1 2 2 3 3 3 3 2 2 2 2 2 3 3
8 8 10 9 10 13 15 16 17 18 17 15 15 14 14 13 12 11 10 8 7 7 5 4 3 3 3 2 1 0 0 1 2 2 2 2 2 3 3 3 3 4 4
7 7 9 9 10 12 14 16 17 17 17 16 15 14 14 14 14 13 11 10 9 8 7 6 5 5 4 4 3 3 3 3 3 3 4 4 4 4 5 4 5 5 6
7 7 7 8 10 11 12 15 16 17 17 16 15 15 15 15 14 13 12 11 10 10 9 8 8 7 6 6 6 6 6 6 6 6 6 6 7 7 7 7 7 8 8
6 5 5 7 9 10 11 13 15 17 17 16 16 16 16 15 15 15 14 12 12 11 11 10 10 10 9 9 9 9 10 10 10 10 10 10 10 10 11 11 11 11 11
Wind_Direction
222 215 209 205 201 199 201 205 207 211 216 220 222 222 215 199 175 148 127 108 86 73 76 77 72 64 54 51 47 44 41 43 53 120 142 133 132 131 133 131 126 125 125
231 223 217 212 208 206 209 212 213 220 228 231 233 233 228 220 212 200 182 152 51 41 49 45 356 355 3 357 354 358 4 13 94 148 160 148 140 138 136 134 131 131 132
241 232 227 223 217 216 217 218 218 228 236 240 243 242 237 233 233 241 257 271 291 310 310 298 297 299 298 300 303 308 315 329 145 152 160 153 152 144 141 141 136 134 134
249 239 234 229 224 221 220 222 226 233 240 245 248 246 242 241 246 257 271 275 280 288 293 294 289 286 283 284 284 285 261 222 176 141 150 158 156 150 148 146 142 141 137
247 241 235 232 230 225 222 225 230 236 242 247 248 249 248 247 254 265 274 279 283 288 293 294 285 276 277 277 274 270 250 223 192 170 159 155 153 155 156 153 153 146 143
247 241 238 236 232 227 224 225 230 237 244 246 248 250 250 253 259 266 271 277 284 289 291 289 282 277 273 271 268 260 250 215 204 201 181 179 169 165 166 165 161 150 146
250 243 240 237 232 229 226 225 230 238 243 245 246 249 252 255 261 266 270 276 282 287 286 282 278 274 267 265 260 256 247 229 230 217 199 194 187 180 176 175 175 162 154
254 245 241 238 233 229 228 227 230 235 241 244 246 250 252 254 261 268 273 278 284 284 282 279 276 275 267 261 261 260 252 243 237 225 210 205 205 200 195 188 183 170 166
249 244 238 237 231 228 227 228 231 233 237 242 246 251 252 256 262 267 270 277 281 280 279 280 281 278 268 263 266 267 262 251 239 227 219 218 216 205 199 191 186 181 180
252 243 235 237 231 228 226 226 227 230 234 239 243 247 250 256 260 264 270 278 280 278 277 281 284 283 278 268 268 271 271 262 248 230 226 231 226 217 214 205 199 197 194
254 247 245 237 230 225 225 224 225 228 230 234 238 242 248 252 256 262 271 277 280 281 281 281 281 281 278 267 266 270 270 264 251 237 236 241 232 227 222 216 213 210 203
256 249 245 235 225 223 224 224 224 227 229 233 237 241 243 246 252 259 265 270 276 282 286 286 283 280 277 272 266 266 268 262 251 252 249 244 237 234 230 227 223 220 215
267 257 248 237 228 223 221 224 226 227 228 234 239 241 242 245 249 253 261 267 277 280 284 284 284 286 279 273 271 270 260 255 253 260 255 244 243 243 241 237 234 230 226
281 267 253 246 235 225 221 225 227 227 229 232 235 238 241 246 248 251 260 271 281 282 278 285 286 287 284 280 281 274 264 254 252 253 255 248 248 250 246 243 241 237 234
277 265 253 241 230 223 224 225 226 226 228 231 233 237 239 245 253 254 255 267 278 278 276 302 312 306 296 289 288 282 271 258 253 256 247 249 254 252 251 247 243 242 237
280 264 256 238 227 221 220 223 224 224 227 229 233 236 243 250 254 257 258 260 269 274 272 282 301 308 305 298 292 286 280 258 249 256 259 258 257 258 255 252 250 247 237
278 268 255 239 229 226 222 222 224 223 225 228 231 236 244 252 257 256 254 258 268 284 285 283 289 306 316 305 290 286 284 265 258 250 263 269 270 269 265 255 252 248 240
276 268 258 245 234 229 225 222 222 219 221 225 230 237 243 246 253 255 251 257 260 266 272 283 293 297 305 320 320 296 304 285 276 258 266 278 276 273 273 253 254 257 249
275 262 258 252 239 234 226 218 217 218 218 223 229 236 241 241 244 247 248 251 249 256 262 267 277 278 301 339 356 4 18 9 343 293 278 278 279 258 272 273 260 269 263
283 263 255 246 240 233 228 220 217 216 218 223 227 234 235 233 235 240 241 241 240 245 250 256 262 261 267 52 54 49 56 49 49 50 23 339 41 311 286 291 292 281 278
290 270 255 246 239 233 228 224 217 217 220 223 227 231 232 234 233 232 234 233 234 239 242 248 251 233 204 122 78 68 63 60 59 62 60 50 52 49 18 339 322 311 306
291 273 258 251 242 231 228 223 215 215 217 221 224 228 230 230 230 229 228 230 232 233 233 234 228 219 213 176 110 83 61 51 44 47 50 46 41 18 352 335 333 325 319
294 270 261 249 236 228 227 222 216 216 218 221 224 226 224 225 227 226 224 227 232 232 231 230 228 228 231 233 239 258 355 11 351 356 12 3 348 350 341 325 319 311 308
293 272 257 244 229 225 227 221 218 216 217 218 221 222 222 224 225 225 225 227 231 233 231 232 236 238 240 247 258 270 285 295 304 311 313 313 317 322 326 324 318 309 305
306 278 257 235 229 227 225 219 216 218 217 218 221 222 223 223 223 225 225 227 232 234 235 236 240 242 247 254 263 273 281 286 289 292 296 294 297 299 302 305 305 305 303
326 285 244 230 229 226 221 214 214 214 216 217 220 224 224 223 223 225 227 228 232 236 236 239 243 247 251 257 264 272 279 284 288 289 290 289 289 289 291 293 295 297 298
Height
5877 5878 5879 5881 5882 5883 5884 5885 5886 5887 5887 5888 5888 5888 5888 5888 5888 5888 5887 5887 5887 5887 5887 5887 5887 5887 5887 5887 5886 5886 5886 5886 5886 5886 5887 5887 5888 5888 5889 5890 5891 5891 5892
5877 5878 5879 5880 5881 5883 5884 5885 5886 5887 5887 5888 5888 5888 5888 5888 5888 5888 5888 5888 5888 5888 5888 5887 5887 5887 5887 5887 5887 5887 5886 5886 5886 5887 5887 5888 5888 5889 5890 5891 5892 5892 5894
5876 5877 5878 5879 5881 5882 5883 5885 5886 5887 5888 5888 5888 5889 5889 5889 5889 5888 5888 5888 5888 5888 5888 5888 5888 5887 5887 5887 5887 5887 5887 5887 5887 5887 5887 5888 5889 5890 5891 5892 5892 5893 5895
5875 5876 5877 5879 5880 5881 5883 5884 5886 5887 5887 5888 5888 5889 5889 5889 5889 5889 5888 5888 5888 5888 5888 5888 5888 5888 5887 5887 5887 5887 5887 5887 5887 5887 5888 5888 5889 5890 5891 5892 5893 5894 5895
5874 5875 5876 5877 5879 5880 5882 5884 5885 5886 5887 5888 5888 5889 5889 5889 5889 5888 5888 5888 5888 5888 5888 5888 5888 5887 5887 5887 5887 5887 5887 5887 5888 5888 5888 5889 5890 5891 5892 5893 5894 5895 5896
5872 5873 5875 5876 5878 5879 5881 5883 5884 5885 5886 5887 5888 5888 5888 5888 5888 5888 5888 5888 5888 5888 5888 5888 5888 5887 5887 5887 5887 5887 5888 5888 5888 5888 5889 5890 5891 5892 5893 5894 5895 5896 5897
5871 5871 5873 5874 5876 5878 5879 5881 5883 5884 5885 5886 5887 5888 5888 5888 5888 5888 5887 5887 5888 5888 5887 5887 5887 5887 5887 5887 5887 5887 5888 5888 5888 5889 5890 5890 5891 5892 5893 5894 5895 5896 5897
5869 5869 5870 5872 5874 5876 5878 5880 5881 5883 5884 5885 5886 5887 5887 5887 5887 5887 5887 5887 5887 5887 5887 5887 5887 5887 5887 5887 5887 5887 5887 5888 5888 5889 5889 5890 5891 5892 5893 5894 5895 5896 5898
5865 5865 5867 5869 5871 5873 5876 5878 5880 5882 5883 5884 5885 5886 5887 5887 5887 5886 5886 5886 5887 5887 5887 5887 5887 5886 5886 5887 5887 5887 5887 5887 5888 5888 5889 5890 5891 5892 5893 5894 5896 5897 5898
5862 5860 5862 5866 5869 5871 5874 5876 5878 5880 5881 5883 5884 5885 5886 5886 5886 5886 5886 5886 5886 5886 5886 5886 5886 5886 5886 5886 5887 5887 5887 5887 5888 5888 5889 5890 5891 5892 5893 5894 5895 5897 5898
5860 5860 5861 5864 5866 5869 5871 5874 5876 5878 5880 5882 5883 5884 5885 5885 5885 5885 5885 5885 5885 5885 5886 5886 5886 5886 5886 5886 5886 5886 5886 5887 5887 5887 5889 5890 5890 5891 5893 5894 5895 5896 5897
5858 5859 5860 5861 5863 5867 5869 5871 5874 5877 5879 5880 5882 5883 5884 5884 5884 5885 5885 5885 5885 5885 5885 5885 5885 5885 5885 5885 5885 5886 5886 5885 5886 5887 5888 5889 5890 5891 5892 5893 5894 5896 5897
5854 5856 5857 5858 5861 5864 5867 5869 5872 5875 5877 5879 5881 5882 5882 5883 5883 5884 5884 5884 5884 5884 5884 5884 5884 5884 5885 5885 5885 5885 5884 5885 5885 5885 5887 5888 5889 5890 5891 5892 5894 5895 5896
5851 5852 5854 5856 5858 5860 5864 5867 5870 5873 5875 5877 5879 5880 5881 5882 5883 5883 5883 5883 5883 5883 5884 5884 5884 5884 5884 5884 5884 5884 5884 5885 5884 5885 5886 5887 5888 5889 5890 5891 5892 5893 5894
5848 5848 5850 5851 5854 5857 5861 5865 5868 5871 5873 5876 5877 5879 5880 5881 5882 5882 5882 5883 5883 5883 5883 5883 5883 5883 5884 5884 5884 5884 5884 5883 5884 5885 5886 5886 5887 5888 5889 5890 5891 5892 5893
5845 5845 5848 5848 5851 5855 5859 5862 5865 5868 5872 5874 5876 5878 5879 5880 5881 5881 5881 5882 5882 5882 5883 5883 5883 5883 5883 5883 5883 5883 5883 5883 5884 5885 5884 5885 5886 5887 5888 5889 5890 5890 5891
5844 5844 5845 5845 5849 5852 5856 5859 5863 5866 5870 5873 5875 5876 5878 5879 5880 5880 5881 5881 5881 5882 5882 5883 5883 5883 5883 5883 5883 5883 5883 5883 5884 5884 5884 5884 5885 5886 5887 5888 5889 5889 5890
5842 5841 5841 5842 5846 5850 5853 5857 5861 5864 5868 5871 5873 5875 5876 5878 5879 5879 5880 5880 5881 5881 5882 5882 5883 5883 5883 5883 5882 5882 5882 5882 5883 5883 5884 5884 5885 5885 5886 5887 5888 5888 5889
5839 5839 5840 5841 5843 5847 5850 5854 5858 5862 5865 5868 5871 5873 5875 5876 5877 5878 5879 5880 5880 5881 5882 5882 5882 5882 5882 5882 5882 5882 5882 5882 5883 5883 5883 5884 5884 5885 5886 5887 5887 5888 5888
5837 5837 5838 5839 5841 5844 5848 5851 5855 5859 5863 5866 5869 5871 5873 5875 5876 5877 5878 5879 5880 5880 5881 5881 5881 5882 5882 5882 5882 5882 5882 5883 5883 5883 5883 5883 5884 5885 5885 5886 5887 5887 5888
5835 5835 5835 5836 5838 5841 5845 5848 5853 5857 5860 5864 5867 5869 5871 5873 5874 5876 5877 5878 5879 5880 5880 5880 5881 5881 5882 5882 5882 5883 5883 5883 5883 5883 5883 5884 5884 5885 5885 5886 5886 5887 5887
5834 5833 5833 5833 5835 5839 5843 5846 5850 5854 5857 5861 5864 5867 5869 5871 5873 5874 5876 5877 5878 5879 5879 5880 5880 5881 5882 5882 5882 5883 5883 5884 5883 5884 5884 5884 5884 5885 5885 5885 5886 5886 5887
5832 5832 5832 5832 5834 5837 5840 5844 5847 5851 5855 5859 5862 5864 5867 5869 5871 5872 5874 5876 5877 5878 5879 5879 5880 5881 5881 5882 5882 5883 5883 5883 5883 5884 5884 5884 5884 5885 5885 5885 5885 5885 5885
5831 5831 5831 5831 5833 5835 5838 5842 5845 5849 5853 5856 5859 5862 5864 5866 5868 5870 5872 5874 5876 5877 5878 5879 5879 5880 5881 5881 5882 5882 5883 5883 5883 5884 5884 5884 5884 5884 5884 5884 5884 5884 5884
5830 5829 5829 5830 5832 5834 5837 5839 5843 5847 5850 5854 5857 5859 5862 5864 5866 5869 5871 5872 5874 5875 5876 5877 5878 5879 5880 5880 5881 5881 5881 5882 5882 5883 5883 5883 5883 5883 5883 5883 5883 5883 5883
5829 5829 5829 5830 5831 5833 5835 5837 5841 5845 5848 5851 5854 5857 5859 5862 5864 5867 5868 5870 5872 5873 5874 5875 5876 5877 5878 5878 5879 5879 5880 5880 5880 5881 5881 5881 5881 5881 5881 5881 5881 5881 5880